Location: Saluda
(35.2377°N, 82.3468°W)
Time: 08:21:11
(UTC+00:00)

deb Explorer IX - Pass Details

Date: 12 October 2022
Orbit: 533 x 1057 km, 38.8° (Epoch: 02 December)

Event Time Altitude Azimuth Distance (km) Brightness Sun altitude
Exits shadow 09:09:58 33° 59° (ENE) 977 ? -29.9°
Drops below altitude 10° 09:12:38 10° 71° (ENE) 1,959 ? -29.3°
Sets 09:15:07 0° 75° (ENE) 2,941 ? -28.8°
